[[{"header":{"parameterUnit":"m.s-1","parameterCategory":1,"la1":30.2991,"la2":30.254,"lo1":-89.0895,"lo2":-89.0444,"dy":0.0017,"dx":0.0017,"nx":28,"ny":28,"refTime":"2024-04-13T09:00:00:Z","depth":0,"parameterNumber":2,"parameterNumberName":"U-component_of_WINDS"},"data":[0,0,0,0,0,0,0,0,0,0,0,0,0,0,0,0,0,0,0,0,0,0,0,0,0,0,0,0,0,0,0,0,0,0,0,0,0,0,0,0,0,0,0,0,0,0,0,0,0,0,0,0,0,0,0,0,0,0,-1.9843,-1.9843,0,-1.9836,-1.9836,-1.9836,-1.9755,-1.9753,-1.9751,-1.9749,-1.9744,-1.9746,-1.9747,0,0,0,0,0,0,0,0,0,0,0,0,0,-1.979,-1.9791,-1.9843,-1.9843,-1.9843,-1.9836,-1.9836,-1.9835,-1.9756,-1.9753,-1.9751,-1.9748,-1.9743,-1.9745,-1.9747,0,0,0,0,0,0,0,0,0,0,0,0,0,-1.9801,-1.9792,-1.9843,-1.9802,-1.9798,-1.9836,-1.9836,-1.9835,-1.9756,-1.9753,-1.975,-1.9747,-1.9743,-1.9745,-1.9748,-1.9825,0,0,-1.9756,-1.9757,0,0,0,0,0,0,0,0,-1.98,-1.9803,-1.9808,-1.9805,-1.9801,-1.9793,-1.9815,-1.9832,-1.9757,-1.9772,-1.9749,-1.9746,-1.9763,-1.9764,-1.9769,-1.9824,-1.9824,-1.9756,-1.9758,-1.9759,-1.9759,0,0,0,0,0,0,0,-1.98,-1.9803,-1.984,-1.9808,-1.9804,-1.9785,-1.9783,-1.9818,-1.9785,-1.9771,-1.9765,-1.9765,-1.976,-1.9767,-1.9768,-1.9824,-1.9756,-1.9758,-1.976,-1.9761,-1.9944,-1.9947,0,0,0,0,0,0,-1.9804,-1.9803,-1.984,-1.984,-1.9793,-1.9788,-1.9786,-1.9799,-1.9784,-1.9779,-1.9767,-1.9761,-1.9764,-1.9765,-1.9768,-1.9858,-1.9759,-1.9761,-1.9763,-1.9941,-1.9945,-1.9948,0,0,0,0,0,0,-1.9803,-1.9808,-1.9841,-1.982,-1.9822,-1.9792,-1.9807,-1.98,-1.9806,-1.9782,-1.9776,-1.978,-1.9761,-1.9764,-1.9811,-1.9857,-1.9762,-1.9765,-1.9937,-1.9942,-1.9946,-2.0039,0,0,0,0,0,0,-1.9802,-1.9808,-1.9837,-1.9821,-1.9824,-1.9884,-1.981,-1.9802,-1.9811,-1.9803,-1.9792,-1.9787,-1.9759,-1.9808,-1.9814,-1.9859,-1.9767,-1.9933,-1.9939,-1.9945,-2.0031,-2.0046,-2.0059,0,0,0,0,0,-1.9801,-1.9863,-1.9839,-1.9844,-1.9858,-1.9886,-1.9888,-1.9854,-1.9815,-1.9844,-1.9828,-1.9787,-1.9851,-1.9813,-1.982,-1.9866,-1.993,-1.9937,-1.9944,-2.0025,-2.0043,-2.0058,0,0,0,0,0,0,-1.9886,-1.986,-1.9833,-1.9892,-1.9892,-1.9873,-1.9908,-1.9874,-1.9886,-1.9878,-1.9835,-1.9834,-1.9888,-1.9881,-1.984,-1.994,-1.9883,-1.9892,-1.9943,-1.9959,-1.9973,-1.9974,-1.9769,0,0,0,0,0,-1.9911,-1.9935,-1.9912,-1.9967,-1.9968,-1.9938,-1.9949,-1.9923,-1.9922,-1.9922,-1.9909,-1.991,-1.993,-1.9944,-1.9961,-2.003,-2.0027,-2.0065,-2.0078,-2.009,-2.0098,-2.0135,-2.0152,-1.9972,-1.9972,-1.9972,0,0,-1.9964,-1.9953,-1.9971,-1.9983,-1.998,-2.0008,-1.9939,-1.997,-1.999,-1.9926,-1.997,-1.9962,-1.996,-2.0019,-2.0044,-2.0015,-2.0147,-2.0099,-2.0108,-2.0111,-2.0145,-2.0162,-2.0177,-1.9977,-1.9977,-1.9976,0,0,-2.0075,-2.0069,-2.0114,-2.0113,-2.0109,-2.0089,-2.01,-2.0086,-2.0078,-2.0121,-2.0074,-2.0098,-2.0133,-2.0134,-2.0139,-2.0252,-2.0216,-2.0259,-2.033,-2.0367,-2.0381,-2.0394,-2.0435,-2.045,-2.0267,-2.0267,-2.0267,0,-2.0142,-2.018,-2.0142,-2.0177,-2.0184,-2.0127,-2.0174,-2.0174,-2.0176,-2.0183,-2.015,-2.0194,-2.0189,-2.0248,-2.0275,-2.0281,-2.0293,-2.026,-2.0382,-2.0394,-2.0405,-2.0444,-2.046,-2.0273,-2.0272,-2.0271,-2.0271,0,-2.0263,-2.0291,-2.0328,-2.0331,-2.0343,-2.0383,-2.0352,-2.0368,-2.0342,-2.0325,-2.0371,-2.0363,-2.0378,-2.039,-2.0364,-2.0445,-2.0428,-2.0389,-2.0331,-2.0428,-2.0464,-2.0479,-2.028,-2.0278,-2.0277,-2.0275,0,0,-2.0427,-2.041,-2.0424,-2.0426,-2.0418,-2.0439,-2.0477,-2.0491,-2.0507,-2.051,-2.0543,-2.0574,-2.0539,-2.0545,-2.0518,-2.0551,-2.0642,-2.0508,-2.0508,-2.0535,-2.0734,-2.0764,-2.0781,-2.0618,-2.0621,-2.0623,-2.0734,0,-2.0535,-2.0599,-2.0566,-2.0635,-2.0661,-2.0608,-2.0641,-2.0641,-2.0627,-2.0647,-2.0632,-2.0656,-2.0606,-2.061,-2.0639,-2.0625,-2.0682,-2.0616,-2.0649,-2.065,-2.0652,-2.08,-2.0831,-2.0937,-2.0748,-2.075,-2.0752,0,-2.0669,-2.0679,-2.075,-2.0739,-2.0748,-2.0779,-2.079,-2.081,-2.0809,-2.0796,-2.0804,-2.077,-2.0808,-2.0751,-2.0803,-2.0759,-2.0771,-2.0766,-2.0769,-2.0772,-2.0708,-2.0808,-2.0969,-2.0986,-2.0774,-2.0772,-2.077,0,-2.0783,-2.0814,-2.0861,-2.0864,-2.0851,-2.0874,-2.087,-2.0866,-2.0877,-2.0887,-2.0894,-2.0909,-2.0917,-2.093,-2.0901,-2.0862,-2.0959,-2.0898,-2.0951,-2.0952,-2.0974,-2.0973,-2.1141,-2.098,-2.098,-2.0979,-2.0979,0,-2.0908,-2.0954,-2.0912,-2.0941,-2.0992,-2.0954,-2.1006,-2.0996,-2.0993,-2.102,-2.0975,-2.1001,-2.0962,-2.0985,-2.0963,-2.1011,-2.1015,-2.1007,-2.1001,-2.1011,-2.1013,-2.1019,-2.1011,-2.0983,-2.0983,-2.0982,-2.0981,0,-2.1044,-2.1018,-2.1066,-2.105,-2.1047,-2.1086,-2.1073,-2.1099,-2.1083,-2.1118,-2.1124,-2.1098,-2.1123,-2.1096,-2.1118,-2.1104,-2.1169,-2.1151,-2.1169,-2.1165,-2.1219,-2.1215,-2.1398,-2.1421,-2.1244,-2.1246,-2.1247,0,-2.1126,-2.116,-2.1148,-2.1163,-2.1162,-2.1186,-2.1197,-2.1162,-2.1175,-2.1177,-2.1205,-2.1225,-2.124,-2.1283,-2.1267,-2.1284,-2.1268,-2.133,-2.127,-2.128,-2.127,-2.1269,-2.1273,-2.1343,-2.1345,-2.1347,-2.1348,0,-2.1274,-2.1259,-2.1277,-2.1291,-2.1305,-2.1315,-2.132,-2.1335,-2.1299,-2.1317,-2.1341,-2.1353,-2.1376,-2.1398,-2.1412,-2.1408,-2.1373,-2.1368,-2.1381,-2.1393,-2.1402,-2.1399,-2.1204,-2.1364,-2.1362,-2.1361,-2.136,-2.136,-2.1386,-2.1414,-2.1411,-2.1433,-2.1433,-2.144,-2.1465,-2.1451,-2.1471,-2.1487,-2.1465,-2.1497,-2.1496,-2.151,-2.1511,-2.1535,-2.1508,-2.1528,-2.1533,-2.1538,-2.1547,-2.1398,-2.1537,-2.1537,-2.1536,-2.1536,-2.1536,0,-2.1532,-2.1528,-2.1548,-2.1558,-2.1575,-2.154,-2.1545,-2.1562,-2.159,-2.1592,-2.1608,-2.1637,-2.1658,-2.1644,-2.1663,-2.1685,-2.167,-2.1691,-2.169,-2.169,-2.1569,-2.1556,-2.1704,-2.1704,-2.1704,-2.1704,-2.1703,-2.1703,-2.1611,-2.1658,-2.1643,-2.1691,-2.1686,-2.1716,-2.1722,-2.1728,-2.173,-2.1765,-2.1782,-2.1772,-2.1768,-2.1786,-2.1805,-2.18,-2.1809,-2.1837,-2.1827,-2.1715,-2.1698,-2.1683,-2.167,-2.1839,-2.1839,-2.1946,-2.1947,-2.1948]},{"header":{"parameterUnit":"m.s-1","parameterCategory":1,"la1":30.2991,"la2":30.254,"lo1":-89.0895,"lo2":-89.0444,"dy":0.0017,"dx":0.0017,"nx":28,"ny":28,"refTime":"2024-04-13T09:00:00:Z","depth":0,"parameterNumber":3,"parameterNumberName":"V-component_of_WINDS"},"data":[0,0,0,0,0,0,0,0,0,0,0,0,0,0,0,0,0,0,0,0,0,0,0,0,0,0,0,0,0,0,0,0,0,0,0,0,0,0,0,0,0,0,0,0,0,0,0,0,0,0,0,0,0,0,0,0,0,0,-0.2303,-0.2303,0,-0.2289,-0.2289,-0.2289,-0.2258,-0.2258,-0.2257,-0.2256,-0.2243,-0.2243,-0.2243,0,0,0,0,0,0,0,0,0,0,0,0,0,-0.2302,-0.2302,-0.2303,-0.2303,-0.2303,-0.2289,-0.2289,-0.2289,-0.2258,-0.2258,-0.2257,-0.2256,-0.2243,-0.2243,-0.2243,0,0,0,0,0,0,0,0,0,0,0,0,0,-0.2297,-0.2302,-0.2303,-0.2286,-0.2284,-0.2289,-0.2289,-0.2289,-0.2258,-0.2257,-0.2257,-0.2256,-0.2242,-0.2243,-0.2243,-0.2264,0,0,-0.2244,-0.2244,0,0,0,0,0,0,0,0,-0.2297,-0.2297,-0.2288,-0.2287,-0.2285,-0.2274,-0.2284,-0.2281,-0.2259,-0.2268,-0.2256,-0.2255,-0.2254,-0.2253,-0.2253,-0.2264,-0.2263,-0.2244,-0.2244,-0.2245,-0.2245,0,0,0,0,0,0,0,-0.2297,-0.2297,-0.2298,-0.2288,-0.2286,-0.2278,-0.2277,-0.2283,-0.2267,-0.2267,-0.2265,-0.2264,-0.2253,-0.2253,-0.2252,-0.2263,-0.2244,-0.2244,-0.2245,-0.2245,-0.229,-0.2291,0,0,0,0,0,0,-0.23,-0.2298,-0.2298,-0.2297,-0.2289,-0.2279,-0.2277,-0.2279,-0.2266,-0.2264,-0.2265,-0.2262,-0.2253,-0.2252,-0.2252,-0.2276,-0.2245,-0.2245,-0.2245,-0.2289,-0.229,-0.2291,0,0,0,0,0,0,-0.23,-0.2301,-0.2299,-0.2297,-0.2296,-0.228,-0.2282,-0.2279,-0.2279,-0.2264,-0.2261,-0.2267,-0.2252,-0.2251,-0.2261,-0.2275,-0.2245,-0.2245,-0.2287,-0.2289,-0.229,-0.2324,0,0,0,0,0,0,-0.23,-0.2301,-0.2309,-0.2297,-0.2296,-0.2309,-0.2283,-0.2279,-0.2279,-0.2276,-0.2266,-0.2264,-0.2251,-0.2261,-0.2262,-0.2275,-0.2246,-0.2286,-0.2288,-0.229,-0.2321,-0.2326,-0.233,0,0,0,0,0,-0.2301,-0.2319,-0.231,-0.231,-0.2306,-0.231,-0.2309,-0.2294,-0.2281,-0.2289,-0.2279,-0.2264,-0.2273,-0.2262,-0.2263,-0.2276,-0.2285,-0.2288,-0.229,-0.2319,-0.2325,-0.233,0,0,0,0,0,0,-0.2333,-0.2317,-0.2307,-0.2322,-0.2317,-0.2304,-0.2314,-0.2301,-0.23,-0.2297,-0.2278,-0.2276,-0.2289,-0.2283,-0.2272,-0.2295,-0.2277,-0.2279,-0.2299,-0.2304,-0.2309,-0.231,-0.2246,0,0,0,0,0,-0.2342,-0.2347,-0.2332,-0.2347,-0.2345,-0.233,-0.2331,-0.232,-0.2314,-0.2312,-0.2303,-0.2299,-0.23,-0.2302,-0.2302,-0.232,-0.2317,-0.2329,-0.2334,-0.2337,-0.234,-0.2348,-0.2354,-0.2298,-0.2298,-0.2298,0,0,-0.2361,-0.2353,-0.2357,-0.2353,-0.2348,-0.2353,-0.2329,-0.2335,-0.2338,-0.2313,-0.2322,-0.2315,-0.2309,-0.2322,-0.2328,-0.2318,-0.2354,-0.234,-0.2343,-0.2344,-0.2351,-0.2357,-0.2361,-0.23,-0.2299,-0.2299,0,0,-0.2398,-0.2392,-0.2403,-0.2399,-0.2391,-0.2381,-0.2384,-0.2372,-0.2367,-0.2375,-0.2357,-0.236,-0.2363,-0.2359,-0.2358,-0.2391,-0.2377,-0.2392,-0.2415,-0.2424,-0.2428,-0.2432,-0.2444,-0.2449,-0.2394,-0.2394,-0.2394,0,-0.2422,-0.2428,-0.2411,-0.2418,-0.2417,-0.2394,-0.2406,-0.2402,-0.2395,-0.2395,-0.2384,-0.2387,-0.2381,-0.2393,-0.2401,-0.2401,-0.2403,-0.2393,-0.2429,-0.2433,-0.2436,-0.2447,-0.2452,-0.2396,-0.2396,-0.2396,-0.2396,0,-0.2459,-0.2463,-0.2473,-0.2467,-0.2467,-0.2477,-0.246,-0.2462,-0.2451,-0.2441,-0.245,-0.2441,-0.244,-0.2442,-0.243,-0.2452,-0.2446,-0.2432,-0.2413,-0.2443,-0.2454,-0.2458,-0.2399,-0.2398,-0.2398,-0.2397,0,0,-0.2517,-0.25,-0.2504,-0.2501,-0.2491,-0.2494,-0.2501,-0.25,-0.2502,-0.2497,-0.2504,-0.2506,-0.2493,-0.2491,-0.2479,-0.2486,-0.2513,-0.2471,-0.2471,-0.248,-0.2537,-0.2548,-0.2554,-0.2504,-0.2504,-0.2505,-0.2538,0,-0.2552,-0.2565,-0.2549,-0.2565,-0.2569,-0.2546,-0.2553,-0.2547,-0.2538,-0.254,-0.253,-0.2532,-0.2514,-0.2513,-0.2519,-0.2509,-0.2525,-0.2506,-0.2509,-0.251,-0.2513,-0.2559,-0.2571,-0.2602,-0.2542,-0.2542,-0.2543,0,-0.2594,-0.2592,-0.2608,-0.2596,-0.2597,-0.2604,-0.26,-0.2602,-0.2595,-0.2588,-0.2585,-0.257,-0.2577,-0.2557,-0.2566,-0.2553,-0.2553,-0.2549,-0.2549,-0.255,-0.2529,-0.2561,-0.2612,-0.2617,-0.2549,-0.2548,-0.2548,0,-0.2636,-0.2636,-0.2646,-0.2644,-0.263,-0.2635,-0.2629,-0.2621,-0.262,-0.2617,-0.2617,-0.2614,-0.2613,-0.2612,-0.2597,-0.2584,-0.2607,-0.2586,-0.2602,-0.2602,-0.2608,-0.2608,-0.2661,-0.2607,-0.2607,-0.2607,-0.2607,0,-0.2677,-0.2688,-0.2664,-0.2671,-0.2682,-0.2663,-0.2675,-0.2667,-0.266,-0.2664,-0.2643,-0.2648,-0.2627,-0.2629,-0.2617,-0.2626,-0.2625,-0.262,-0.2617,-0.2622,-0.2623,-0.2623,-0.262,-0.2608,-0.2608,-0.2608,-0.2608,0,-0.2726,-0.271,-0.272,-0.2705,-0.2702,-0.2711,-0.2698,-0.2703,-0.2692,-0.2698,-0.2698,-0.2681,-0.2682,-0.2666,-0.2664,-0.2656,-0.267,-0.2663,-0.2673,-0.2671,-0.2687,-0.2686,-0.2742,-0.2748,-0.269,-0.2691,-0.2691,0,-0.2753,-0.2761,-0.2747,-0.2748,-0.2744,-0.2746,-0.2745,-0.2726,-0.2726,-0.2718,-0.2724,-0.2723,-0.2721,-0.2724,-0.2712,-0.271,-0.2702,-0.2722,-0.2702,-0.2707,-0.2703,-0.2703,-0.2704,-0.2727,-0.2727,-0.2728,-0.2728,0,-0.2804,-0.2796,-0.2796,-0.2793,-0.2792,-0.2789,-0.2784,-0.2786,-0.2766,-0.2767,-0.2767,-0.2766,-0.2764,-0.2763,-0.2759,-0.2752,-0.2737,-0.2734,-0.2738,-0.2744,-0.275,-0.2747,-0.2685,-0.2734,-0.2733,-0.2733,-0.2732,-0.2732,-0.2843,-0.2849,-0.284,-0.284,-0.2835,-0.2831,-0.2834,-0.2824,-0.2824,-0.282,-0.2809,-0.2811,-0.2803,-0.2795,-0.279,-0.2792,-0.2782,-0.2787,-0.2789,-0.279,-0.2794,-0.2749,-0.2791,-0.2791,-0.2791,-0.279,-0.279,0,-0.2893,-0.2886,-0.2886,-0.288,-0.288,-0.2865,-0.2859,-0.286,-0.2862,-0.2856,-0.2854,-0.2855,-0.2854,-0.2841,-0.2838,-0.2842,-0.2835,-0.2842,-0.2842,-0.2841,-0.2802,-0.28,-0.2848,-0.2848,-0.2848,-0.2848,-0.2848,-0.2848,-0.292,-0.2929,-0.2919,-0.2925,-0.2917,-0.2919,-0.2917,-0.2913,-0.2908,-0.2909,-0.2908,-0.2899,-0.289,-0.2886,-0.2885,-0.2881,-0.2881,-0.2891,-0.2885,-0.2849,-0.2844,-0.2838,-0.2836,-0.2891,-0.2891,-0.2923,-0.2924,-0.2924]}]]